Deer Lodge (38S)
Deer Lodge, MT
Field Elevation: 4692
Lat: 49°23.27N  Long: 112°45.89W
CTAF/Unicom Freq: 120.0250
   
     For Weather-by-Phone, call 406-846-1177
Weather Advisories
8/29/2014 05:20 Z
Altimeter 30.10" Hg
Wind 310° @ 8 KT
Gusts --
Visibility 10 SM
Temperature 18° C (64° F)
Dewpoint 3° C (37° F)
Relative Humidity 38%
Density Altitude 5,900 feet
Condensation Altitude 11,900 feet
  Wind and Runways
Indicated Runway = 31
History
 
 
More Info
All DigiWx sites map
Weather Radar
NOAA Forecast
 
Airport IQ 5010
(S59) Libby
(6S5) Ravalli County
 
about DigiWx
 
FAA Disclaimer: The data displayed is for advisory purposes only and is not to be used for flight planning or operations. For official data, please call 406-846-1177 to hear the current automated AWOS voice message.
  METAR 38S 290520Z AUTO 31008KT 10SM 18/03 A3010